sat.trackr.live / text

‹ back to catalog

STARLINK-6141

NORAD 57112 · 2023-090M

PAYLOAD ACTIVE UNKNOWN

§ Identity

Operator
Country
US
Launch date
2023-06-23
Launch site
AFETR
Launch vehicle
Mass (kg)
RCS (m²)

Purposes: comms

External: N2YO · Heavens-Above · Gunter

§ Orbital elements

Epoch: 2026-09-20T11:47:43.202400Z

Period
94.27 min
Inclination
43.0013°
Eccentricity
0.0001133
Mean motion
15.27577056 rev/d
Perigee alt
482.3 km
Apogee alt
483.8 km
Semi-major
6,861.2 km
B*
7.6813e-6
RAAN
261.5193°
Arg perigee
265.0094°
Mean anomaly
95.0628°
Rev number
18,012

§ Raw data

STARLINK-61411 57112U 23090M   26263.49147225 -.00000051  00000+0  76813-5 0  99992 57112  43.0013 261.5193 0001133 265.0094  95.0628 15.27577056180127

JSON: /api/v1/satellites/57112 · /tle

For live sub-satellite position, see the globe view (requires WebGL).

§ Visibility from observer

Set your observer location to see the next 7 days of passes ≥ 10°. The values pass through the URL so the page stays shareable.

No JS? Fill the form by hand. The geolocation button needs JavaScript.